• In Belgium
  • List of Countries
  • For 7 days
  • Water Temperature
  • Satellite Maps
  • Weather Map
  • Weather Widgets
  • user-avatar
    Login

    Hourly Weather Divriği

    Today, 22 October, Monday

    Time Temperature Precipitation Wind Pressure Humidity
    00:00 +13°C° 0.2 mm 1 mps 667 mmHg 87%
    01:00 +13°C° 0.1 mm 1 mps 667 mmHg 89%
    02:00 +13°C° 0.1 mm 1 mps 667 mmHg 90%
    03:00 +12°C° 0 mm 1 mps 667 mmHg 91%
    04:00 +12°C° 0.1 mm 1 mps 667 mmHg 92%
    05:00 +12°C° 0.1 mm 1 mps 667 mmHg 92%
    06:00 +12°C° 0.1 mm 1 mps 667 mmHg 93%
    07:00 +12°C° 0 mm 1 mps 668 mmHg 87%
    08:00 +13°C° 0 mm 1 mps 668 mmHg 82%
    09:00 +15°C° 0 mm 1 mps 669 mmHg 75%
    10:00 +16°C° 0 mm 1 mps 669 mmHg 69%
    11:00 +16°C° 0 mm 2 mps 669 mmHg 62%
    12:00 +17°C° 0 mm 2 mps 669 mmHg 55%
    13:00 +18°C° 0 mm 2 mps 669 mmHg 53%
    14:00 +18°C° 0 mm 2 mps 669 mmHg 50%
    15:00 +17°C° 0 mm 2 mps 670 mmHg 54%
    16:00 +17°C° 0 mm 2 mps 670 mmHg 56%
    17:00 +17°C° 0 mm 2 mps 670 mmHg 58%
    18:00 +16°C° 0 mm 1 mps 669 mmHg 59%
    19:00 +16°C° 0 mm 1 mps 669 mmHg 62%
    20:00 +15°C° 0 mm 1 mps 669 mmHg 65%
    21:00 +15°C° 0 mm 1 mps 669 mmHg 68%
    22:00 +14°C° 0 mm 1 mps 669 mmHg 70%
    23:00 +14°C° 0 mm 1 mps 669 mmHg 72%

    Tomorrow, 23 October, Tuesday

    Time Temperature Precipitation Wind Pressure Humidity
    00:00 +14°C° 0 mm 1 mps 669 mmHg 74%
    01:00 +14°C° 0 mm 1 mps 669 mmHg 77%
    02:00 +13°C° 0 mm 1 mps 669 mmHg 79%
    03:00 +13°C° 0 mm 1 mps 669 mmHg 81%
    04:00 +13°C° 0 mm 1 mps 669 mmHg 83%
    05:00 +12°C° 0 mm 1 mps 669 mmHg 85%
    06:00 +12°C° 0 mm 1 mps 668 mmHg 88%
    07:00 +13°C° 0 mm 1 mps 669 mmHg 83%
    08:00 +14°C° 0 mm 1 mps 669 mmHg 79%
    09:00 +15°C° 0 mm 2 mps 669 mmHg 74%
    10:00 +16°C° 0 mm 2 mps 669 mmHg 69%
    11:00 +17°C° 0 mm 2 mps 669 mmHg 63%
    12:00 +18°C° 0 mm 3 mps 669 mmHg 57%
    13:00 +18°C° 0 mm 3 mps 669 mmHg 55%
    14:00 +18°C° 0 mm 3 mps 669 mmHg 54%
    15:00 +19°C° 0 mm 3 mps 668 mmHg 52%
    16:00 +18°C° 0.2 mm 3 mps 668 mmHg 56%
    17:00 +17°C° 0.2 mm 2 mps 668 mmHg 60%
    18:00 +16°C° 0.2 mm 2 mps 667 mmHg 65%
    19:00 +16°C° 0.4 mm 2 mps 667 mmHg 68%
    20:00 +16°C° 0.4 mm 2 mps 667 mmHg 71%
    21:00 +15°C° 0.4 mm 2 mps 667 mmHg 74%
    22:00 +15°C° 0.2 mm 2 mps 667 mmHg 77%
    23:00 +14°C° 0.2 mm 2 mps 667 mmHg 79%

    Day after tomorrow, 24 October, Wednesday

    Time Temperature Precipitation Wind Pressure Humidity
    00:00 +14°C° 0.2 mm 2 mps 667 mmHg 82%
    01:00 +14°C° 0.1 mm 2 mps 666 mmHg 84%
    02:00 +13°C° 0.1 mm 2 mps 666 mmHg 86%
    03:00 +13°C° 0.1 mm 2 mps 666 mmHg 88%
    04:00 +13°C° 0.2 mm 2 mps 665 mmHg 89%
    05:00 +13°C° 0.2 mm 2 mps 665 mmHg 90%
    06:00 +13°C° 0.2 mm 2 mps 665 mmHg 91%
    07:00 +13°C° 0.2 mm 2 mps 665 mmHg 86%
    08:00 +14°C° 0.2 mm 2 mps 665 mmHg 82%
    09:00 +15°C° 0.2 mm 2 mps 665 mmHg 78%
    10:00 +16°C° 0.3 mm 3 mps 665 mmHg 73%
    11:00 +17°C° 0.3 mm 4 mps 664 mmHg 69%
    12:00 +17°C° 0.3 mm 4 mps 664 mmHg 65%
    13:00 +16°C° 0.7 mm 5 mps 663 mmHg 65%
    14:00 +16°C° 0.7 mm 5 mps 663 mmHg 65%
    15:00 +17°C° 0.7 mm 5 mps 662 mmHg 65%
    16:00 +16°C° 1 mm 5 mps 661 mmHg 67%
    17:00 +17°C° 1 mm 4 mps 661 mmHg 70%
    18:00 +15°C° 1 mm 4 mps 661 mmHg 72%
    19:00 +15°C° 0.5 mm 4 mps 661 mmHg 74%
    20:00 +14°C° 0.5 mm 4 mps 661 mmHg 75%
    21:00 +14°C° 0.5 mm 3 mps 661 mmHg 77%
    22:00 +14°C° 0.6 mm 3 mps 660 mmHg 77%
    23:00 +14°C° 0.6 mm 3 mps 660 mmHg 78%

    25 October, Thursday

    Time Temperature Precipitation Wind Pressure Humidity
    00:00 +14°C° 0.6 mm 3 mps 660 mmHg 79%
    01:00 +14°C° 0.5 mm 3 mps 659 mmHg 79%
    02:00 +13°C° 0.5 mm 3 mps 659 mmHg 80%
    03:00 +13°C° 0.5 mm 3 mps 659 mmHg 80%
    04:00 +13°C° 1 mm 4 mps 658 mmHg 81%
    05:00 +13°C° 1 mm 4 mps 658 mmHg 82%
    06:00 +13°C° 1 mm 5 mps 657 mmHg 83%
    07:00 +13°C° 0.6 mm 5 mps 657 mmHg 81%
    08:00 +14°C° 0.6 mm 6 mps 658 mmHg 79%
    09:00 +14°C° 0.6 mm 6 mps 658 mmHg 77%
    10:00 +14°C° 1.3 mm 6 mps 658 mmHg 77%
    11:00 +14°C° 1.3 mm 6 mps 658 mmHg 76%
    12:00 +13°C° 1.3 mm 6 mps 658 mmHg 75%
    13:00 +13°C° 1.3 mm 5 mps 658 mmHg 75%
    14:00 +13°C° 1.3 mm 5 mps 658 mmHg 75%
    15:00 +12°C° 1.3 mm 4 mps 658 mmHg 75%
    16:00 +11°C° 1.6 mm 4 mps 658 mmHg 77%
    17:00 +10°C° 1.6 mm 4 mps 658 mmHg 79%
    18:00 +8°C° 1.6 mm 4 mps 658 mmHg 81%
    19:00 +7°C° 1.9 mm 4 mps 658 mmHg 81%
    20:00 +7°C° 1.9 mm 4 mps 659 mmHg 81%
    21:00 +6°C° 1.9 mm 4 mps 659 mmHg 81%
    22:00 +5°C° 0.7 mm 4 mps 659 mmHg 81%
    23:00 +5°C° 0.7 mm 4 mps 660 mmHg 81%

    26 October, Friday

    Time Temperature Precipitation Wind Pressure Humidity
    00:00 +4°C° 0.7 mm 4 mps 660 mmHg 81%
    01:00 +4°C° 0.1 mm 3 mps 660 mmHg 81%
    02:00 +4°C° 0.1 mm 3 mps 661 mmHg 81%
    03:00 +4°C° 0.1 mm 3 mps 661 mmHg 81%
    04:00 +4°C° 0 mm 3 mps 661 mmHg 81%
    05:00 +3°C° 0 mm 3 mps 662 mmHg 81%
    06:00 +3°C° 0 mm 3 mps 662 mmHg 81%
    07:00 +3°C° 0 mm 3 mps 662 mmHg 79%
    08:00 +3°C° 0 mm 3 mps 663 mmHg 76%
    09:00 +3°C° 0 mm 3 mps 663 mmHg 74%
    10:00 +4°C° 0 mm 3 mps 664 mmHg 68%
    11:00 +5°C° 0 mm 4 mps 664 mmHg 61%
    12:00 +6°C° 0 mm 4 mps 665 mmHg 55%
    13:00 +6°C° 0 mm 4 mps 665 mmHg 54%
    14:00 +6°C° 0 mm 5 mps 665 mmHg 53%
    15:00 +7°C° 0 mm 5 mps 665 mmHg 52%
    16:00 +6°C° 0 mm 5 mps 666 mmHg 55%
    17:00 +6°C° 0 mm 4 mps 667 mmHg 58%
    18:00 +5°C° 0 mm 3 mps 667 mmHg 60%
    19:00 +5°C° 0 mm 3 mps 668 mmHg 62%
    20:00 +5°C° 0 mm 2 mps 669 mmHg 64%
    21:00 +5°C° 0 mm 2 mps 669 mmHg 65%
    22:00 +5°C° 0 mm 2 mps 670 mmHg 66%
    23:00 +5°C° 0 mm 2 mps 670 mmHg 67%

    27 October, Saturday

    Time Temperature Precipitation Wind Pressure Humidity
    00:00 +6°C° 0 mm 1 mps 671 mmHg 68%
    01:00 +5°C° 0 mm 1 mps 671 mmHg 69%
    02:00 +5°C° 0 mm 1 mps 671 mmHg 70%
    03:00 +5°C° 0 mm 1 mps 671 mmHg 71%
    04:00 +5°C° 0 mm 1 mps 672 mmHg 72%
    05:00 +4°C° 0 mm 1 mps 672 mmHg 73%
    06:00 +4°C° 0 mm 1 mps 672 mmHg 74%
    07:00 +5°C° 0 mm 1 mps 672 mmHg 70%
    08:00 +6°C° 0 mm 1 mps 673 mmHg 66%
    09:00 +6°C° 0 mm 0 mps 673 mmHg 61%
    10:00 +8°C° 0 mm 0 mps 673 mmHg 56%
    11:00 +9°C° 0 mm 0 mps 673 mmHg 50%
    12:00 +10°C° 0 mm 0 mps 673 mmHg 45%
    13:00 +11°C° 0 mm 0 mps 672 mmHg 42%
    14:00 +12°C° 0 mm 0 mps 672 mmHg 39%
    15:00 +13°C° 0 mm 0 mps 672 mmHg 36%
    16:00 +12°C° 0 mm 0 mps 672 mmHg 39%
    17:00 +11°C° 0 mm 0 mps 672 mmHg 43%
    18:00 +10°C° 0 mm 0 mps 672 mmHg 47%
    19:00 +9°C° 0 mm 0 mps 672 mmHg 47%
    20:00 +9°C° 0 mm 0 mps 672 mmHg 48%
    21:00 +8°C° 0 mm 0 mps 672 mmHg 48%
    22:00 +8°C° 0 mm 0 mps 672 mmHg 49%
    23:00 +8°C° 0 mm 0 mps 672 mmHg 49%

    28 October, Sunday

    Time Temperature Precipitation Wind Pressure Humidity
    00:00 +8°C° 0 mm 0 mps 672 mmHg 49%
    01:00 +7°C° 0 mm 0 mps 672 mmHg 49%
    02:00 +8°C° 0 mm 1 mps 672 mmHg 48%
    03:00 +8°C° 0 mm 1 mps 672 mmHg 48%
    04:00 +8°C° 0 mm 1 mps 672 mmHg 48%
    05:00 +8°C° 0 mm 1 mps 672 mmHg 47%
    06:00 +7°C° 0 mm 1 mps 672 mmHg 47%
    07:00 +9°C° 0 mm 1 mps 672 mmHg 43%
    08:00 +11°C° 0 mm 1 mps 673 mmHg 39%
    09:00 +13°C° 0 mm 1 mps 674 mmHg 35%
    10:00 +14°C° 0 mm 1 mps 674 mmHg 32%
    11:00 +16°C° 0 mm 1 mps 674 mmHg 30%
    12:00 +18°C° 0 mm 1 mps 674 mmHg 27%
    13:00 +19°C° 0 mm 1 mps 674 mmHg 26%
    14:00 +19°C° 0 mm 1 mps 673 mmHg 25%
    15:00 +20°C° 0 mm 1 mps 673 mmHg 23%
    16:00 +18°C° 0 mm 1 mps 673 mmHg 27%
    17:00 +16°C° 0 mm 1 mps 672 mmHg 31%
    18:00 +14°C° 0 mm 1 mps 672 mmHg 35%
    19:00 +13°C° 0 mm 1 mps 672 mmHg 35%
    20:00 +13°C° 0 mm 1 mps 672 mmHg 36%
    21:00 +12°C° 0 mm 1 mps 672 mmHg 36%
    22:00 +12°C° 0 mm 1 mps 672 mmHg 36%
    23:00 +12°C° 0 mm 1 mps 672 mmHg 37%
    Show more